Wetbulb
62.04 61.21 60.66 61.79 59.68 57.12 53.65 53.44 51.97 51.69 51.73 50.75 50.55 49.75 47.96 46.07 45.32 48.19 47.38 48.23 47.82 47.25
61.58 60.69 60.28 60.81 59.84 55.99 53.33 51.25 51.03 50.67 49.38 49.63 48.65 47.65 45.19 45.65 45.13 47.27 48.47 48.06 47.73 47.08
61.52 61.11 60.51 60.00 58.12 54.22 52.76 51.41 50.56 50.22 49.55 48.89 47.36 45.83 42.90 42.84 46.86 47.16 47.98 46.37 46.13 45.81
61.24 61.38 60.54 59.64 58.12 55.91 54.18 50.92 48.70 48.46 49.03 47.28 45.07 44.18 44.09 45.92 45.18 45.81 44.26 46.21 44.76 44.16
60.91 59.60 58.31 56.58 55.56 54.16 51.19 48.22 49.27 49.91 47.82 45.31 46.72 45.45 44.37 43.98 44.58 44.56 44.49 44.42 44.93 43.94
58.23 55.82 54.40 53.35 51.86 49.90 48.94 49.09 48.90 47.78 45.34 44.88 45.51 43.84 43.90 43.86 43.51 43.85 45.22 44.82 44.33 44.05
56.82 56.33 56.27 54.85 53.02 50.76 49.59 48.12 44.78 44.99 44.76 43.92 43.29 43.19 43.33 43.20 42.90 42.63 44.13 43.96 44.13 44.20
55.09 54.38 53.24 51.77 51.39 50.20 50.59 47.05 43.87 43.09 42.26 43.86 43.44 43.14 43.80 43.43 41.24 42.19 43.48 44.00 44.20 44.38
51.27 49.44 48.62 47.16 46.30 43.11 42.46 42.67 42.23 42.98 42.34 42.53 43.65 39.07 38.12 38.70 40.07 42.39 41.82 41.98 42.94 43.67
48.09 45.79 44.82 43.65 42.35 41.54 43.36 42.00 42.08 42.50 44.53 42.93 43.36 38.37 38.33 37.63 40.86 41.18 41.77 42.07 41.74 41.53
46.80 45.04 44.79 44.07 44.00 42.80 42.93 42.12 42.90 43.53 43.19 44.63 43.36 37.55 37.80 35.60 39.77 40.69 41.19 41.21 41.28 41.02
46.51 45.85 45.56 44.82 44.89 45.57 45.68 44.80 44.18 42.29 39.71 38.76 39.62 38.19 35.83 35.28 39.98 39.41 39.76 40.28 40.57 40.57
46.39 45.82 44.99 44.87 42.77 40.13 40.27 40.05 40.97 42.21 42.96 40.19 41.41 37.84 35.81 36.04 39.00 38.21 38.39 39.68 39.73 35.77
42.10 40.20 41.32 42.72 42.99 42.99 42.50 41.60 41.24 40.13 41.08 41.13 40.20 40.38 36.26 35.66 37.51 37.86 38.36 38.07 38.29 39.18
MSLP
1017.24 1017.69 1018.21 1018.41 1018.72 1019.31 1020.02 1020.77 1021.33 1021.87 1022.26 1022.68 1023.22 1024.01 1024.65 1025.17 1025.57 1025.07 1024.82 1024.79 1024.72 1024.45
1016.24 1017.16 1017.59 1018.01 1018.46 1019.09 1019.86 1020.42 1021.08 1021.73 1022.16 1022.48 1023.25 1024.08 1024.83 1024.94 1025.11 1024.66 1024.73 1024.60 1024.43 1024.64
1016.03 1016.51 1017.00 1017.49 1018.00 1018.71 1019.44 1019.95 1020.71 1021.29 1021.73 1022.49 1023.09 1023.81 1024.51 1024.61 1024.55 1024.50 1024.74 1024.73 1024.44 1024.33
1015.66 1016.00 1016.41 1016.91 1017.68 1018.23 1018.82 1019.36 1020.14 1020.83 1021.26 1022.10 1022.70 1023.43 1023.96 1024.08 1024.38 1024.54 1025.07 1024.55 1024.36 1024.20
1015.03 1015.70 1016.38 1017.11 1017.68 1018.37 1019.14 1019.81 1020.20 1020.42 1021.07 1021.74 1022.30 1022.91 1023.61 1024.08 1024.60 1024.70 1024.45 1023.87 1023.71 1023.70
1015.04 1015.96 1016.69 1017.23 1017.89 1018.55 1019.03 1019.50 1019.95 1020.60 1021.52 1022.14 1022.73 1023.22 1023.78 1024.14 1024.84 1024.65 1024.26 1023.75 1023.29 1023.04
1014.97 1015.68 1016.25 1017.01 1017.79 1018.38 1018.97 1019.45 1020.09 1020.81 1021.63 1022.17 1022.86 1023.05 1023.89 1024.38 1024.57 1024.44 1024.00 1023.53 1023.13 1022.80
1015.25 1015.88 1016.50 1017.17 1017.71 1018.33 1018.73 1019.67 1020.40 1021.13 1021.63 1022.08 1023.03 1023.31 1023.70 1024.23 1024.35 1024.12 1023.32 1022.81 1022.40 1022.17
1015.86 1016.60 1017.18 1017.93 1018.56 1019.28 1019.80 1020.33 1021.02 1021.22 1021.82 1022.24 1022.60 1023.17 1023.64 1024.07 1024.01 1023.61 1022.84 1022.15 1021.71 1021.42
1016.78 1017.49 1018.23 1018.87 1019.39 1020.02 1020.29 1020.97 1021.20 1021.73 1021.57 1022.10 1022.44 1022.86 1023.38 1023.66 1023.60 1022.87 1022.13 1021.58 1021.12 1020.78
1017.48 1018.16 1018.93 1019.40 1019.81 1020.54 1020.99 1021.34 1021.42 1021.66 1021.92 1021.90 1022.23 1022.80 1023.05 1023.22 1023.07 1022.26 1021.48 1021.04 1020.71 1020.38
1018.16 1018.58 1019.10 1019.63 1020.18 1020.51 1020.73 1021.13 1021.17 1021.69 1022.05 1022.32 1022.35 1022.17 1022.50 1022.92 1022.30 1021.53 1020.94 1020.55 1020.16 1019.81
1018.63 1018.94 1019.42 1019.91 1020.70 1021.20 1021.36 1021.44 1021.50 1021.35 1021.35 1021.44 1021.62 1021.53 1022.04 1022.39 1021.87 1021.05 1020.44 1020.03 1019.52 1019.31
1019.94 1020.37 1020.53 1020.46 1020.63 1020.78 1020.82 1021.01 1021.18 1021.36 1021.32 1021.27 1021.28 1021.31 1021.62 1021.75 1021.55 1020.75 1019.93 1019.38 1018.79 1018.50
Wind_Speed
14 7 9 13 10 9 9 10 10 11 11 11 10 7 5 4 5 8 6 7 6 6
13 13 13 14 12 10 9 8 11 12 12 11 11 7 7 4 6 7 6 6 6 6
12 13 12 11 13 13 12 11 14 15 13 12 9 9 7 5 9 5 4 5 7 6
11 11 10 11 12 13 13 12 12 15 13 11 10 10 9 8 4 5 5 10 8 9
8 7 7 7 7 8 8 9 13 15 11 13 12 11 8 7 5 4 10 11 11 11
6 6 6 6 7 9 9 12 11 9 7 7 7 7 2 7 3 7 12 13 13 13
7 7 8 8 8 10 8 9 7 6 6 7 5 6 6 2 6 9 13 13 14 15
5 5 6 5 6 6 6 8 7 11 9 9 8 5 8 9 6 12 14 14 14 15
7 8 8 8 8 9 10 9 7 9 8 9 7 8 5 5 7 13 15 14 14 14
9 10 10 10 11 10 10 8 10 7 10 7 6 7 7 7 10 13 14 14 14 13
10 11 11 10 10 9 7 6 5 5 7 7 6 3 8 7 12 14 15 15 15 15
11 11 9 9 7 6 4 3 3 4 2 4 8 12 8 8 12 13 14 13 14 15
9 8 7 6 5 3 1 3 4 6 7 6 10 8 8 9 10 13 12 14 15 12
9 7 5 4 3 2 3 4 4 6 7 8 9 10 6 9 11 11 11 12 12 11
Wind_Direction
218 209 216 218 209 197 190 192 174 188 184 186 179 171 189 168 206 231 229 239 249 264
194 204 212 218 203 193 183 180 174 183 185 176 175 178 171 207 221 220 227 236 236 252
212 208 214 202 202 191 186 179 184 190 186 179 175 177 151 188 231 224 256 264 251 248
213 215 211 205 207 201 192 183 181 191 188 182 171 175 187 209 171 216 282 252 246 253
210 206 201 205 206 193 189 175 196 198 186 181 181 184 188 185 193 319 275 256 252 252
183 162 181 173 175 181 187 197 198 188 183 173 188 176 213 75 0 300 283 272 267 260
165 180 181 172 178 183 183 182 135 115 163 159 142 123 124 205 277 282 275 270 266 262
123 125 122 130 143 143 156 139 131 134 121 122 154 166 204 236 277 283 281 277 269 258
105 103 101 99 105 107 110 117 127 120 133 161 192 153 213 257 267 274 278 275 273 265
101 100 100 103 112 104 119 117 133 164 181 194 229 182 235 252 274 277 279 279 279 275
105 105 109 111 110 120 126 147 179 198 224 248 257 229 251 251 272 275 278 280 279 277
110 108 111 114 128 150 172 212 268 5 325 253 255 224 225 262 281 280 280 283 279 276
99 101 93 82 66 74 136 200 215 240 251 284 282 269 235 257 281 280 280 281 277 256
80 93 115 118 81 25 354 322 305 291 292 291 290 293 291 278 289 287 286 282 279 276